Location: Newark
(40.3820°N, 3.6624°W)
Time: 07:48:57
(UTC+00:00)

N. Korean satellite - Pass Details

Date: 21 November 2019
Orbit: 455 x 507 km, 97.2° (Epoch: 13 December)

Event Time Altitude Azimuth Distance (km) Brightness Sun altitude
Rises 05:18:13 0° 27° (NNE) 2,607 10.5 -20.6°
Reaches altitude 10° 05:20:45 10° 45° (NE) 1,710 9.8 -20.1°
Maximum altitude 05:23:31 20° 94° (E) 1,198 9.5 -19.6°
Drops below altitude 10° 05:26:14 10° 143° (SE) 1,680 9.9 -19.0°
Sets 05:28:41 0° 161° (SSE) 2,545 10.6 -18.6°
